Regional Weather Roundup
Issued by NWS

Home | Current Version | Previous Version | Text Only | Print | Product List | Glossary Off
Versions: 1 2 3 4 5 6 7 8 9 10 11 12 13 14 15 16 17 18 19 20 21 22 23 24 25 26 27 28 29 30 31 32 33 34 35 36 37 38 39 40 41 42 43 44 45 46 47 48 49 50

000
ASUS45 KABQ 201410
RWRNM
NEW MEXICO REGIONAL WEATHER ROUNDUP
NATIONAL WEATHER SERVICE ALBUQUERQUE NM
700 AM MST MON FEB 20 2017

NOTE: "FAIR" MEANS FEW OR NO CLOUDS BELOW 12,000 FEET AGL WITH NO
       SIGNIFICANT WEATHER OR OBSTRUCTIONS TO VISION.

      THIS PRODUCT IS RELEASED AS TWO VERSIONS.  ONE VERSION NEAR
      THE TOP OF THE HOUR CONTAINING PRELIMINARY DATA FROM ALBUQUERQUE
      AND OTHER STATIONS.  A FINAL VERSION WITH ADDITIONAL DATA IS
      ISSUED ABOUT 10 MINUTES AFTER THE HOUR.

NMZ501-503-504-510>518-201500-
NORTHWEST PLATEAU/NORTHCENTRAL MOUNTAINS

CITY           SKY/WX    TMP DP  RH WIND       PRES   REMARKS
FARMINGTON     FAIR      36  32  85 W7        30.12R WCI  30
LOS ALAMOS     FAIR      32  32 100 S5        30.11R WCI  27
SANTA FE       FAIR      29  26  89 N7        30.10R WCI  22
TAOS           FAIR      23  14  68 NW6       30.10R WCI  16
ANGEL FIRE     FAIR      26  21  80 NE3       30.09R

$$
NMZ402-403-502-505>509-201500-
WESTCENTRAL MOUNTAINS/SOUTHWEST MOUNTAINS

CITY           SKY/WX    TMP DP  RH WIND       PRES   REMARKS
GALLUP         CLOUDY    35  33  92 S6        30.20R WCI  30
GRANTS         FAIR      29  26  89 NW9       30.20R WCI  20
SILVER CITY    MOCLDY    34  31  90 N8        30.19R WCI  27

$$
NMZ407-409-411-412-201500-
SOUTHERN DESERTS

CITY           SKY/WX    TMP DP  RH WIND       PRES   REMARKS
DEMING         FAIR      38  36  92 W12       30.18R WCI  30
LAS CRUCES     FAIR      39  37  92 W14       30.16R WCI  30
HOLLOMAN AFB   FAIR      33  27  78 NE5       30.15R WCI  29
ALAMOGORDO     FAIR      37  28  70 NE6       30.12R WCI  33
T OR C         FAIR      43  30  60 N6        30.13R

$$
NMZ519>523-201500-
CENTRAL VALLEYS/CENTRAL HIGHLANDS

CITY           SKY/WX    TMP DP  RH WIND       PRES   REMARKS
ALBUQUERQUE    FAIR      38  33  82 E5        30.15R WCI  34
DOUBLE EAGLE   MOCLDY    36  30  80 CALM      30.15R
MORIARTY ARPT  FAIR      36  30  80 NW6       30.10R WCI  31
CLINES CORNERS MOCLDY    32  29  88 NW21      30.09R WCI  20
BELEN          CLOUDY    39  31  73 W9        30.15R WCI  32
SOCORRO        FAIR      44  29  55 NW24G31   30.11R

$$
NMZ524>526-539-540-201500-
SOUTHCENTRAL MOUNTAINS

CITY           SKY/WX    TMP DP  RH WIND       PRES   REMARKS
RUIDOSO        FAIR      36  27  69 NW12G31   30.11R WCI  27

$$
NMZ527>531-201500-
NORTHEAST HIGHLANDS/NORTHEAST PLAINS

CITY           SKY/WX    TMP DP  RH WIND       PRES   REMARKS
LAS VEGAS      FAIR      36  20  52 N12       30.02R WCI  28
RATON          FAIR      31  17  56 E7        29.99R WCI  24
CLAYTON        FAIR      43  33  68 NW15      29.94R

$$
NMZ532>537-201500-
EASTCENTRAL PLAINS

CITY           SKY/WX    TMP DP  RH WIND       PRES   REMARKS
TUCUMCARI      CLOUDY    40  29  64 N10       29.95R WCI  33
CANNON AFB     FAIR      38  38  97 NW9       29.95R WCI  32
CLOVIS AIRPORT FAIR      39  30  70 W16       29.94R WCI  30

$$
NMZ028-029-538-201500-
SOUTHEAST PLAINS

CITY           SKY/WX    TMP DP  RH WIND       PRES   REMARKS
ROSWELL        FAIR      43  29  57 W6          N/A
ARTESIA        FAIR      43  32  65 W14       30.02R
CARLSBAD       FAIR      49  34  56 W17       30.00R
HOBBS          CLEAR     45  32  61 W17       29.97R


$$




USA.gov is the U.S. government's official web portal to all federal, state and local government web resources and services.